Showing default

NOAA 20, 43013

Orbit data source: Space-Track

NOAA 20, 43013 is an American payload satellite in SSO that was launched on Sat, 18 Nov 2017 UTC via a DELTA 7920-10C launch vehicle from the Air Force Western Test Range (AFWTR). Payload-class satellites include a variety of spacecraft equipped with specific instruments for various scientific and technological missions. These include communications satellites like Starlink; space stations such as the ISS; scientific satellites like the Hubble; Earth observation satellites from companies like Planet Labs, Umbra, and HawkEye 360; GPS; miniature CubeSats for education and research; and military/defense satellites.

Loading next visibility...
Identifier
43013, 2017-073A
Orbit
SSO
Country
Flag of USUS
Related business
Manufacturer
Ball
Mission
Operational Civil Weather
Bus & Motor
BCP-2000, AOCS
Mass
2,220 kg wet, ~1,400 kg dry
Launch date (UTC)
2017-11-18 (8 years ago)
Launch vehicle
DELTA 7920-10C
Launch site
Air Force Western Test Range (AFWTR)
Object type
Payload
Rocket body
Debris
Shape & HBR
Box + 1 Pan, 5.0 m
Radar Cross Section
8.434 m², Large (>1 m²)

Expand to show TLE details & history
Last TLE update: 8 hours ago

TLE from 8 hours ago
0 NOAA 20
1 43013U 17073A   25243.58858613  .00000155  00000-0  94066-4 0  9999
2 43013  98.7429 181.1025 0001935  65.5226 294.6152 14.19555921403383
Epoch: 2025-08-31T14:07Z
TLE epoch observation values (Epoch: 2025-08-31T14:07:33.841Z)
Latitude
-0.00001°
Longitude
-10.79487°
Altitude
829.187 km
Speed
7.439 km/s
True Right ascension
12h 04m 24s
True Declination
0° 00' 00"
Sunlit
Object was in daylight at epoch
Visualization orbit readout
Latitude
Unknown
Longitude
Unknown
Altitude
Unknown
Speed
Unknown
Apparent Right ascension
Unknown
Apparent Declination
Unknown
Sunlit
N/A
Visualization observer readout
Local Sidereal Time
14:10:38
Azimuth
Unknown
Elevation
Unknown
Doppler factor
Unknown
Orbital elements
Apogee altitude
825.409 km
Perigee altitude
822.622 km
Semi-major axis
7,202.153 km
Eccentricity
0.00019
Inclination
98.7429°
RAAN
181.1025°
Arg. of periapsis
65.5226°
True anomaly
294.59504°
Mean anomaly
294.6152°
Eccentric anomaly
294.60512°
Mean motion
3.55099 °/min
Orbital period
101.38 mins
BSTAR
0.000094066
Loading maneuver chart data...
Computing Atmospheric mass density...
Loading historical data...
Loading historical data...
Loading historical data...
Loading historical data...
Loading historical data...
Loading historical data...
Loading historical data...
Other satellites on launch #73 in the year 2017 (2017-11-18 UTC)

Documentation

Showing up to 5 results
|